Provo, UT

11:19 PM MDT on May 27, 2018 (GMT -0600)
Provo Municipal

Weather History for KPVU - May, 2014

Change the Weather History Date:

Friday, May 16, 2014

  Actual Average Record
Temperature  
Mean Temperature 62 °F -  
Max Temperature 77 °F 69 °F 86 °F (1988)
Min Temperature 46 °F 43 °F 33 °F (1999)
Degree Days  
Heating Degree Days 4    
Growing Degree Days 12 (Base 50)    
Moisture  
Dew Point 39 °F    
Average Humidity 52    
Maximum Humidity 71    
Minimum Humidity 24    
Precipitation  
Precipitation 0.00 in - - ()
Sea Level Pressure  
Sea Level Pressure 30.09 in    
Wind  
Wind Speed 2 mph (SSE)    
Max Wind Speed 9 mph    
Max Gust Speed -    
Visibility 12 miles    
Events      
Averages and records for this station are not official NWS values.
T = Trace of Precipitation, MM = Missing Value Source: NWS Daily Summary

Daily Weather History Graph

Daily Weather History Graph

Search for Another Location

Airport or City:

Astronomy

May. 16, 2014 Rise Set
Actual Time 6:10 AM MDT 8:36 PM MDT
Civil Twilight 5:39 AM MDT 9:07 PM MDT
Nautical Twilight 5:00 AM MDT 9:46 PM MDT
Astronomical Twilight 4:18 AM MDT 10:29 PM MDT
Moon 10:47 PM MDT (5/16) 7:55 AM MDT (5/16)
Length of Visible Light 15h 28m
Length of Day
14h 26m
Waning Gibbous, 95% of the Moon is Illuminated
May 16
Waning Gibbous
May 21
Last Quarter
May 28
New
Jun 5
First Quarter
Jun 12
Full

Hourly Weather History & Observations

Time (MDT) Temp. Windchill Dew Point Humidity Pressure Visibility Wind Dir Wind Speed Gust Speed Precip Events Conditions
12:15 AM 55.4 °F - 37.4 °F 51% 30.18 in 10.0 mi Calm Calm - N/A   Clear
12:35 AM 55.4 °F - 37.4 °F 51% 30.18 in 10.0 mi Calm Calm - N/A   Clear
12:55 AM 53.6 °F - 37.4 °F 54% 30.18 in 10.0 mi ESE 3.5 mph - N/A   Clear
1:15 AM 51.8 °F - 39.2 °F 62% 30.18 in 10.0 mi Calm Calm - N/A   Clear
1:35 AM 51.8 °F - 41.0 °F 67% 30.18 in 10.0 mi Calm Calm - N/A   Clear
1:55 AM 51.8 °F - 41.0 °F 67% 30.17 in 10.0 mi Calm Calm - N/A   Clear
2:15 AM 51.8 °F - 39.2 °F 62% 30.17 in 10.0 mi Calm Calm - N/A   Clear
2:35 AM 51.8 °F - 39.2 °F 62% 30.17 in 10.0 mi South 3.5 mph - N/A   Clear
2:55 AM 51.8 °F - 35.6 °F 54% 30.16 in 10.0 mi ESE 3.5 mph - N/A   Clear
3:15 AM 50.0 °F - 35.6 °F 58% 30.16 in 10.0 mi Calm Calm - N/A   Clear
3:35 AM 50.0 °F - 35.6 °F 58% 30.15 in 10.0 mi SE 3.5 mph - N/A   Clear
3:55 AM 46.4 °F - 35.6 °F 66% 30.15 in 10.0 mi Calm Calm - N/A   Clear
4:15 AM 48.2 °F - 35.6 °F 62% 30.15 in 10.0 mi Calm Calm - N/A   Clear
4:35 AM 48.2 °F - 35.6 °F 62% 30.14 in 10.0 mi Calm Calm - N/A   Clear
4:55 AM 46.4 °F - 37.4 °F 71% 30.14 in 10.0 mi Calm Calm - N/A   Clear
5:15 AM 46.4 °F 41.9 °F 35.6 °F 66% 30.13 in 10.0 mi SSE 9.2 mph - N/A   Clear
5:35 AM 48.2 °F - 33.8 °F 58% 30.13 in 10.0 mi SE 5.8 mph - N/A   Clear
5:55 AM 48.2 °F - 33.8 °F 58% 30.13 in 10.0 mi ESE 6.9 mph - N/A   Clear
6:15 AM 48.2 °F - 33.8 °F 58% 30.13 in 10.0 mi SE 4.6 mph - N/A   Clear
6:35 AM 48.2 °F - 35.6 °F 62% 30.13 in 10.0 mi SE 8.1 mph - N/A   Clear
6:52 AM 48.2 °F - 35.6 °F 62% 30.13 in 15.0 mi Calm Calm - N/A   Partly Cloudy
7:53 AM 55.4 °F - 35.6 °F 47% 30.14 in 15.0 mi Calm Calm - N/A   Mostly Cloudy
8:49 AM 57.2 °F - 33.8 °F 41% 30.14 in 15.0 mi Calm Calm - N/A   Mostly Cloudy
9:58 AM 64.4 °F - 35.6 °F 34% 30.13 in 15.0 mi SE 3.5 mph - N/A   Scattered Clouds
10:49 AM 66.2 °F - 39.2 °F 37% 30.12 in 15.0 mi Calm Calm - N/A   Mostly Cloudy
11:51 AM 69.8 °F - 44.6 °F 40% 30.10 in 15.0 mi Calm Calm - N/A   Mostly Cloudy
12:49 PM 75.2 °F - 39.2 °F 27% 30.08 in 15.0 mi West 5.8 mph - N/A   Mostly Cloudy
2:47 PM 73.4 °F - 44.6 °F 36% 30.04 in 15.0 mi NW 8.1 mph - N/A   Mostly Cloudy
3:59 PM 77.0 °F - 39.2 °F 26% 30.02 in 15.0 mi WNW 6.9 mph - N/A   Mostly Cloudy
4:58 PM 75.2 °F - 37.4 °F 25% 30.02 in 15.0 mi West 5.8 mph - N/A   Mostly Cloudy
5:52 PM 75.2 °F - 35.6 °F 24% 30.00 in 15.0 mi NW 8.1 mph - N/A   Overcast
6:55 PM 75.2 °F - 39.2 °F 27% 29.99 in 15.0 mi NW 8.1 mph - N/A   Overcast
7:55 PM 66.2 °F - 50.0 °F 56% 29.99 in 15.0 mi WNW 6.9 mph - N/A   Overcast
8:55 PM 64.4 °F - 44.6 °F 49% 29.99 in 15.0 mi WNW 5.8 mph - N/A   Overcast
9:15 PM 64.4 °F - 42.8 °F 45% 29.99 in 10.0 mi Calm Calm - N/A   Clear
9:35 PM 64.4 °F - 46.4 °F 52% 29.99 in 10.0 mi NE 4.6 mph - N/A   Clear
9:55 PM 68.0 °F - 39.2 °F 35% 29.99 in 10.0 mi ESE 4.6 mph - N/A   Clear
10:15 PM 62.6 °F - 42.8 °F 48% 29.99 in 10.0 mi East 3.5 mph - N/A   Clear
10:35 PM 60.8 °F - 48.2 °F 63% 29.99 in 10.0 mi SE 5.8 mph - N/A   Clear
10:55 PM 60.8 °F - 44.6 °F 55% 29.99 in 10.0 mi Calm Calm - N/A   Clear
11:15 PM 59.0 °F - 46.4 °F 63% 29.99 in 10.0 mi South 4.6 mph - N/A   Clear
11:35 PM 57.2 °F - 46.4 °F 67% 29.98 in 10.0 mi South 4.6 mph - N/A   Clear
11:55 PM 57.2 °F - 44.6 °F 63% 29.99 in 10.0 mi Calm Calm - N/A   Clear